Meridian, MS

10:49 AM CST on December 11, 2019 (GMT -0600)
Key

Weather History for KMEI - October, 2019

Change the Weather History Date:

Sunday, October 27, 2019

  Actual Average Record
Temperature  
Mean Temperature 60 °F 60 °F  
Max Temperature 63 °F 74 °F 88 °F (1919)
Min Temperature 57 °F 47 °F 29 °F (1898)
Degree Days  
Heating Degree Days 5 6  
Month to date heating degree days 49 90  
Since 1 July heating degree days 49 97  
Cooling Degree Days 0 2  
Month to date cooling degree days 205 86  
Year to date cooling degree days 2837 2009  
Growing Degree Days 10 (Base 50)    
Moisture  
Dew Point 53 °F    
Average Humidity 78    
Maximum Humidity 86    
Minimum Humidity 72    
Precipitation  
Precipitation 0.00 in 0.13 in 2.17 in (1980)
Month to date precipitation 10.08 3.25  
Year to date precipitation 53.26 45.64  
Sea Level Pressure  
Sea Level Pressure 30.01 in    
Wind  
Wind Speed 3 mph ()    
Max Wind Speed 8 mph    
Max Gust Speed 11 mph    
Visibility 10.0 miles    
Events      
T = Trace of Precipitation, MM = Missing Value Source: Averaged Metar Reports

Daily Weather History Graph

Daily Weather History Graph

Search for Another Location

Airport or City:

Astronomy

Oct. 27, 2019 Rise Set
Actual Time 7:07 AM CDT 6:09 PM CDT
Civil Twilight 6:42 AM CDT 6:34 PM CDT
Nautical Twilight 6:13 AM CDT 7:03 PM CDT
Astronomical Twilight 5:45 AM CDT 7:31 PM CDT
Moon 6:22 AM CDT (10/27) 6:14 PM CDT (10/27)
Length of Visible Light 11h 51m
Length of Day
11h 01m
Waning Crescent, 0% of the Moon is Illuminated
Oct 27
Waning Crescent
Oct 27
New
Nov 4
First Quarter
Nov 12
Full
Nov 19
Last Quarter

Hourly Weather History & Observations

Time (CDT) Temp. Dew Point Humidity Pressure Visibility Wind Dir Wind Speed Gust Speed Precip Events Conditions
12:58 AM 59.0 °F 53.1 °F 81% 29.91 in 10.0 mi WNW 4.6 mph - N/A   Overcast
1:58 AM 57.9 °F 52.0 °F 81% 29.93 in 10.0 mi WNW 3.5 mph - N/A   Overcast
2:58 AM 57.9 °F 53.1 °F 84% 29.93 in 10.0 mi WNW 4.6 mph - N/A   Overcast
3:58 AM 57.9 °F 53.1 °F 84% 29.95 in 10.0 mi WNW 3.5 mph - N/A   Overcast
4:58 AM 57.9 °F 52.0 °F 81% 29.96 in 10.0 mi NW 4.6 mph - N/A   Overcast
5:58 AM 57.9 °F 52.0 °F 81% 29.98 in 10.0 mi WNW 4.6 mph - N/A   Overcast
6:58 AM 57.9 °F 52.0 °F 81% 29.99 in 10.0 mi NNW 5.8 mph - N/A   Overcast
7:58 AM 57.9 °F 52.0 °F 81% 30.01 in 10.0 mi WNW 4.6 mph - N/A   Overcast
8:58 AM 59.0 °F 53.1 °F 81% 30.04 in 10.0 mi Calm Calm - N/A   Overcast
10:58 AM 60.1 °F 52.0 °F 75% 30.06 in 10.0 mi West 3.5 mph - N/A   Overcast
11:58 AM 61.0 °F 53.1 °F 75% 30.06 in 10.0 mi Calm Calm - N/A   Overcast
12:58 PM 61.0 °F 53.1 °F 75% 30.05 in 10.0 mi West 3.5 mph - N/A   Overcast
1:58 PM 62.1 °F 53.1 °F 72% 30.04 in 10.0 mi Calm Calm - N/A   Overcast
2:58 PM 62.1 °F 53.1 °F 72% 30.03 in 10.0 mi SW 3.5 mph - N/A   Overcast
4:58 PM 62.1 °F 53.1 °F 72% 30.03 in 10.0 mi NNE 4.6 mph - N/A   Overcast
6:58 PM 61.0 °F 53.1 °F 75% 30.04 in 10.0 mi Variable 3.5 mph - N/A   Overcast
7:09 PM 61.0 °F 54.0 °F 78% 30.04 in 10.0 mi North 4.6 mph - N/A   Overcast
7:58 PM 60.1 °F 54.0 °F 80% 30.05 in 10.0 mi NE 4.6 mph - N/A   Overcast
9:58 PM 60.1 °F 53.1 °F 78% 30.07 in 10.0 mi ESE 3.5 mph - N/A   Overcast
10:58 PM 59.0 °F 53.1 °F 81% 30.06 in 10.0 mi East 4.6 mph - N/A   Overcast